Location: Deep South Regional Star Gaze
(30.9929°N, 90.9586°W)
Time: 09:46:24
(UTC-05:00)

Daily predictions for brighter satellites

Satellite Brightness Start Highest point End
(mag) Time Altitude Azimuth Time Altitude Azimuth Time Altitude Azimuth
Cosmos 1758 Rocket 3.7 19:09:51 10° N 19:14:19 60° E 19:18:44 10° SSE
Cosmos 1763 Rocket 4.0 19:09:26 10° SSW 19:14:28 65° WNW 19:19:36 10° N
Cosmos 2369 Rocket 3.5 19:10:08 10° NW 19:15:27 45° WSW 19:20:44 10° S
Cosmos 1378 3.6 19:12:26 10° N 19:16:00 40° E 19:19:33 10° SSE
Cosmos 304 Rocket 3.8 19:12:10 10° SSW 19:16:56 89° ESE 19:21:45 10° NNE
COSMOS 2406 3.3 19:12:42 10° S 19:18:17 62° ESE 19:23:57 10° NNE
MONITOR-E 4.1 19:15:28 10° SSE 19:18:32 81° ENE 19:21:38 10° N
SAR-Lupe-3 4.5 19:19:07 10° NNE 19:22:41 68° E 19:26:14 10° S
Cosmos 1707 2.7 19:19:50 10° N 19:23:44 61° E 19:27:36 10° SSE
Cosmos 1766 3.9 19:21:58 10° SSE 19:25:32 34° E 19:29:05 10° NNE
Cosmos 1356 Rocket 4.2 19:23:31 10° NNE 19:27:25 33° ENE 19:31:19 10° SE
Cosmos 2228 3.0 19:25:31 10° S 19:29:53 89° ESE 19:34:14 10° N
Cosmos 2298 Rocket 4.2 19:25:12 10° NNW 19:30:33 84° WSW 19:35:52 10° SSE
Meteor 2-5 Rocket 3.7 19:28:04 10° N 19:33:50 67° E 19:39:27 10° SSE
Cosmos 2181 Rocket 4.0 19:27:55 10° N 19:34:07 87° E 19:40:13 10° S
ISS -2.9 19:32:50 10° WSW 19:35:59 48° NW 19:39:10 10° NNE
ALOS 2.2 19:32:40 10° SSE 19:37:16 64° ENE 19:41:53 10° N
Cosmos 2074 Rocket 4.0 19:31:15 10° S 19:37:23 65° E 19:43:30 10° NNE
Cosmos 1758 4.2 19:47:31 10° SSE 19:50:53 26° E 19:54:15 10° NNE
Cosmos 1812 Rocket 3.8 19:48:23 10° SSE 19:52:36 45° E 19:56:52 10° NNE
FREGAT/IRIS 2.6 19:51:19 10° SSE 19:54:16 57° ENE 19:57:15 10° N
Cosmos 2082 Rocket 3.7 19:51:28 10° SE 19:53:28 16° ESE 19:53:28 16° ESE
Cosmos 1805 3.4 19:52:01 10° SSE 19:55:45 47° E 19:59:30 10° NNE
ATLAS 3B CENTAUR R/B 4.2 19:48:27 10° WSW 19:56:38 74° SSE 20:14:13 19° E
ATLAS 5 CENTAUR R/B 2.8 19:54:09 10° SSE 19:57:36 22° ESE 19:57:40 22° ESE
USA 234 3.3 19:52:44 10° SE 19:59:17 84° SW 20:05:52 10° NW
Cosmos 1943 Rocket 4.2 19:56:13 10° NW 20:01:01 30° WSW 20:05:50 10° SSW
Resurs 01 Rocket 2.8 20:01:55 22° ENE 20:01:55 22° ENE 20:05:19 10° NNE
CZ-2D R/B 4.3 20:04:04 26° ENE 20:04:04 26° ENE 20:07:03 10° NNE
Thor Agena Rocket 4.3 19:59:23 10° N 20:04:29 56° WNW 20:09:29 10° SSW
Meteor 2-19 Rocket 4.4 19:59:15 10° S 20:05:11 63° E 20:11:10 10° NNE
GP-B 3.6 20:03:03 10° NNE 20:07:06 34° E 20:08:55 25° SE
ATLAS CENTAUR R/B 2.9 19:56:58 10° NW 20:08:02 67° NE 20:10:27 27° ESE
Cosmos 783 Rocket 4.4 20:05:35 10° S 20:10:45 74° ESE 20:15:57 10° NNE
Nadezhda 3 Rocket 4.3 20:07:19 10° N 20:13:16 43° E 20:17:42 17° SE
Cosmos 372 Rocket 4.0 20:13:41 10° N 20:18:52 57° ENE 20:21:22 29° SE
Yuri Rocket 3.2 20:14:08 10° W 20:19:01 62° S 20:20:14 43° ESE
Cosmos 2285 Rocket 4.2 20:13:44 10° S 20:19:48 46° E 20:25:53 10° NNE
Lacrosse 4 Rocket 3.8 20:16:57 10° SSE 20:17:07 11° SSE 20:17:07 11° SSE
Geosat 3.9 20:19:20 16° SSE 20:23:22 90° E 20:28:26 10° NNW
Envisat 3.7 20:24:15 33° ENE 20:24:15 33° ENE 20:28:30 10° N
Cosmos 1125 Rocket 3.4 20:18:43 10° NNW 20:24:02 74° ENE 20:27:19 24° SSE
Cosmos 1356 3.9 20:22:22 10° N 20:25:00 45° NNE 20:25:00 45° NNE
Meteor 1-24 Rocket 4.2 20:21:16 10° NNW 20:27:05 64° W 20:32:40 10° S
OAO 3 Rocket 3.3 20:23:40 10° SW 20:28:24 53° SSE 20:29:00 49° SE
Gbstr 26 Del rocket 3.4 20:24:55 10° SSW 20:29:32 60° SE 20:31:04 43° ENE
H-2A R/B 3.7 20:29:46 10° S 20:33:19 46° W 20:36:56 10° NNW
SJ-6B 3.5 20:31:27 10° S 20:35:24 54° W 20:39:16 10° NNW
ATLAS 2AS CENTAUR R/B 4.0 20:33:46 10° N 20:40:02 25° NE 20:40:36 25° NE
Cosmos 1953 2.4 20:37:21 10° S 20:41:22 76° W 20:45:25 10° N
BREEZE M DEB (TANK) 3.9 20:44:40 10° NW 20:47:44 33° NNW 20:47:44 33° NNW
NOSS 3-1 (A) 4.5 20:41:54 10° NW 20:49:46 64° WSW 20:56:51 16° SSE
NOSS 3-3 (A) 3.7 20:48:01 10° SSW 20:53:59 76° ESE 20:55:46 48° NE
NOSS 3-3 (C) 3.7 20:48:08 10° SSW 20:54:05 75° ESE 20:55:39 52° NE
SJ 16-02 2.0 20:58:22 10° NNW 21:02:00 52° WNW 21:02:00 52° WNW
Delta 2 Rocket 4.5 20:58:55 10° W 21:07:34 61° S 21:08:32 57° SSE
Cosmos 1833 Rocket 3.8 21:06:41 10° SSW 21:20:14 - NNE 21:09:31 31° SSW
Milstar 3 Cent rocket 3.0 21:15:54 10° W 21:19:07 38° WSW 21:19:07 38° WSW
Centaur D AC-29 2.7 21:17:54 10° WSW 21:24:06 38° SW 21:24:06 38° SW
FALCON 9 R/B 3.2 21:33:49 10° WNW 21:36:10 43° WNW 21:36:10 43° WNW
Resurs 01 Rocket 4.0 21:39:30 21° WNW 21:39:30 21° WNW 21:41:50 10° NW
Cosmos 2082 Rocket 3.9 21:33:17 10° SW 21:45:39 - N 21:35:35 24° SW
ATLAS 5 CENTAUR R/B 4.1 21:38:02 10° WSW 21:39:22 17° WSW 21:39:22 17° WSW
ATLAS 2AS CENTAUR R/B 4.2 22:23:56 10° NW 22:28:02 33° NW 22:28:02 33° NW
